Tracking 35275 objects as of 8-Sep-2026
HD Live streaming from Space Station
objects crossing your sky now

STARLINK-30333

Track STARLINK-30333 now!
10-day predictions
STARLINK-30333 is classified as:


NORAD ID: 57702
Int'l Code: 2023-129E
Launch date: August 27, 2023
Source: United States (US)
Launch site: AIR FORCE EASTERN TEST RANGE (AFETR)
Your satellite tracking list
Your tracking list is empty




NASA's NSSDC Master Catalog

Two Line Element Set (TLE):
1 57702U 23129E   26250.51015046  .00000609  00000-0  31638-4 0  9995
2 57702  43.0036 170.7460 0001090 272.9907  87.0820 15.27577135168496
Source of the keplerian elements: AFSPC